Torna al catalogo

LEMUR 2 BALTO

AttivoMeteoSSO
NORAD 63395·PAYLOAD·🇺🇸 United States

Lanciato Mar 15, 2025 da Vandenberg Space Force Base

Loading…

Prossimi Passaggi (prossime 24 ore)

TLE

AggiornatoSource: Space-Track

Epoca: Sep 14, 2026, 03:34 UTC

1 63395U 25052BH  26257.14868451  .00002775  00000-0  22354-3 0  9999
2 63395  97.6686 149.7161 0009324 125.9877 234.2213 15.00720147 82101

Traccia LEMUR 2 BALTO in tempo reale con AllMySat

Download on the App Store